Location: Arrington
(35.8681°N, 86.7092°W)
Time: 21:49:23
(UTC+00:00)

COSMOS 2455 - Pass Details

Date: 23 November 2019
Orbit: 902 x 908 km, 67.1° (Epoch: 11 December)

Event Time Altitude Azimuth Distance (km) Brightness Sun altitude
Exits shadow 10:19:28 58° 224° (SW) 1,043 2.9 -26.3°
Drops below altitude 10° 10:24:49 10° 169° (S) 2,575 5.4 -25.3°
Sets 10:27:20 0° 166° (SSE) 3,512 6.2 -24.8°
